Weather Roundup
Issued by NWS Springfield, MO

Home | Current Version | Previous Version | Text Only | Print | Product List | Glossary On
Versions: 1 2 3 4 5 6 7 8 9 10 11 12 13 14 15 16 17 18 19 20 21 22 23 24 25 26 27 28 29 30 31 32 33 34 35 36 37 38 39 40 41 42 43 44 45 46 47 48 49 50
000
NZUS99 KSGF 030807
HRRSGF

HOURLY WEATHER
NATIONAL WEATHER SERVICE SPRINGFIELD MO
300 AM CDT TUE MAY 03 2016

......SGF CWA......

CITY           SKY/WX    TMP DP  RH WIND       PRES   REMARKS
SPRINGFIELD    CLOUDY    47  44  90 N3        30.05S
JOPLIN         FOG       43  42  97 CALM      30.07F VSB 3/4
WEST PLAINS    CLOUDY    51  45  79 VRB3      30.03F
ROLLA          CLOUDY    48  47  96 NW7       30.02S
OSAGE BEACH    CLOUDY    45  36  70 W3        30.05F VSB 1/4

......SURROUNDING SGF CWA......

CITY           SKY/WX    TMP DP  RH WIND       PRES   REMARKS
CHANUTE        PTCLDY    43  41  93 CALM      30.07F FOG
PARSONS        CLEAR     41  40  96 CALM      30.08F
COFFEYVILLE    PTCLDY    42  42 100 CALM      30.07F
EMPORIA        PTCLDY    44  42  93 SE3       30.06F
GROVE OK       CLEAR     43  43 100 CALM      30.08S FOG
ROGERS AR      PTCLDY    45  45 100 CALM      30.06S FOG
SILOAM SPRINGS CLOUDY    43  36  75 CALM      30.07S VSB 1/2
HARRISON AR    CLOUDY    49  45  86 W6        30.04F
NEAR YELLVILLE CLOUDY   N/A N/A N/A W3        30.01S

......KANSAS AND MISSOURI......

CITY           SKY/WX    TMP DP  RH WIND       PRES   REMARKS
KANSAS CTY INT CLEAR     46  43  89 W5        30.06S
DOWNTOWN KC    CLEAR     45  43  93 CALM      30.06S
COLUMBIA       FOG       43  42  97 CALM      30.04F VSB 1/4
SEDALIA        CLEAR     45  44  97 SW6       30.06F
ST JOSEPH      FOG       42  41  96 CALM      30.07S VSB 1/4
ST LOUIS       CLOUDY    53  49  86 NW5       30.01F
SPIRIT OF STL  CLOUDY    52  50  93 NW3       30.01F
KIRKSVILLE     CLEAR     40  39  97 NW3       30.05S FOG
WICHITA        PTCLDY    47  40  76 CALM      30.06S
TOPEKA         CLEAR     42  40  92 CALM      30.07S FOG
OLATHE         CLEAR     45  42  89 W5        30.06F

......TENNESSEE......

CITY           SKY/WX    TMP DP  RH WIND       PRES   REMARKS
MEMPHIS        CLOUDY    60  52  74 N9        29.97F
NASHVILLE      MOCLDY    57  51  80 N3        29.95S

......ARKANSAS.......

CITY           SKY/WX    TMP DP  RH WIND       PRES   REMARKS
FAYETTEVILLE   FOG       40  40 100 CALM      30.07S VSB 1/2
FT SMITH       CLEAR     48  43  82 CALM      30.06F
LITTLE ROCK    CLOUDY    58  49  72 N3        30.02F

......OKLAHOMA.......

CITY           SKY/WX    TMP DP  RH WIND       PRES   REMARKS
TULSA          CLEAR     47  44  90 CALM      30.06F
PONCA CITY     PTCLDY    42  40  92 CALM      30.06F
MCALESTER      CLEAR     44  41  89 CALM      30.08F
OKLAHOMA CITY  PTCLDY    44  41  89 SW3       30.08F

......IOWA............

CITY           SKY/WX    TMP DP  RH WIND       PRES   REMARKS
DES MOINES     CLEAR     47  41  80 CALM      30.04F
QUAD CITIES    CLEAR     41  39  93 CALM      30.00F

......ILLINOIS........

CITY           SKY/WX    TMP DP  RH WIND       PRES   REMARKS
QUINCY         CLOUDY    49  47  93 NW5       30.02F
CHICAGO        PTCLDY    41  34  76 W5        29.97F




USA.gov is the U.S. government's official web portal to all federal, state and local government web resources and services.